PBO Station Position Time Series. Reference Frame : NAM14
Format Version,1.1.1
4-character ID,AC70
Station name,Brokebits_AK2003
Begin Date, 2007-06-29
End Date, 2023-06-26
Release Date, 2023-06-27
Reference position, 63.3047108758 North Latitude, -148.1883217704 East Longitude, 810.86336 meters elevation,
Date, North (mm), East (mm), Vertical (mm), North Std. Deviation (mm), East Std. Deviation (mm),              Vertical Std. Deviation (mm), Quality,
2007-06-29,0.00, 0.00, 0.00, 2.29, 1.53, 7.48, repro,
2007-06-30,1.45, -0.77, 3.07, 2.27, 1.53, 7.38, repro,
2007-07-01,0.48, -1.08, 2.35, 2.27, 1.53, 7.39, repro,
2007-07-02,2.60, -1.51, 5.60, 2.25, 1.54, 7.40, repro,
2007-07-03,1.57, -0.16, -1.48, 2.26, 1.54, 7.44, repro,
2007-07-04,-1.47, 0.27, -2.92, 2.38, 1.60, 7.76, repro,
2007-07-05,0.25, -1.35, -1.16, 2.28, 1.53, 7.46, repro,
2007-07-06,-0.45, -1.05, -8.53, 2.28, 1.53, 7.44, repro,
2007-07-07,1.05, -1.21, -2.51, 2.27, 1.53, 7.42, repro,
2007-07-08,1.25, 0.09, -6.23, 2.25, 1.53, 7.43, repro,
2007-07-09,0.86, -0.24, -2.02, 2.26, 1.53, 7.47, repro,
2007-07-10,0.26, -0.43, 0.72, 2.28, 1.53, 7.47, repro,
2007-07-11,1.17, -0.41, 7.56, 2.44, 1.62, 7.79, repro,
2007-07-12,0.96, -0.57, -0.40, 2.25, 1.53, 7.40, repro,
2007-07-13,2.26, -0.59, 4.03, 2.29, 1.57, 7.54, repro,
2007-07-14,1.60, -0.43, -0.18, 2.45, 1.65, 7.83, repro,
2007-07-15,0.96, -1.63, 1.49, 2.31, 1.54, 7.50, repro,
2007-07-16,1.25, -0.86, 1.21, 2.28, 1.52, 7.39, repro,
2007-07-17,2.52, -0.18, 5.19, 2.26, 1.53, 7.39, repro,
2007-07-18,1.11, -1.26, -2.49, 2.24, 1.53, 7.35, repro,
2007-07-19,2.77, -0.33, 6.49, 2.25, 1.53, 7.42, repro,
2007-07-20,0.84, -0.36, 9.71, 2.37, 1.58, 7.66, repro,
2007-07-21,2.47, -0.80, 11.46, 2.29, 1.54, 7.48, repro,
2007-07-22,1.64, -1.57, 7.39, 2.27, 1.52, 7.43, repro,
2007-07-23,0.92, -1.74, 11.63, 2.25, 1.53, 7.39, repro,
2007-07-24,1.31, -1.07, 9.54, 2.25, 1.52, 7.39, repro,
2007-07-25,2.02, -1.44, 8.11, 2.25, 1.52, 7.42, repro,
2007-07-26,1.59, -1.13, 7.54, 2.29, 1.52, 7.43, repro,
2007-07-27,0.40, -0.40, 4.28, 2.28, 1.52, 7.42, repro,
2007-07-28,0.91, -1.60, 9.10, 2.24, 1.51, 7.33, repro,
2007-07-29,1.86, -0.04, 5.27, 2.29, 1.54, 7.46, repro,
2007-07-30,0.46, -1.41, 10.47, 2.28, 1.52, 7.41, repro,
2007-07-31,-0.36, -1.48, 3.05, 2.29, 1.52, 7.39, repro,
2007-08-01,1.52, -0.35, -5.52, 2.30, 1.54, 7.45, repro,
2007-08-02,0.14, -0.13, 4.13, 2.25, 1.52, 7.34, repro,
2007-08-03,0.97, -1.70, 8.24, 2.26, 1.52, 7.38, repro,
2007-08-04,-0.40, -0.97, 8.57, 2.26, 1.52, 7.39, repro,
2007-08-05,1.26, -1.07, 1.08, 2.25, 1.52, 7.37, repro,
2007-08-06,-0.92, -1.99, 8.55, 2.34, 1.56, 7.53, repro,
2007-08-07,0.55, -1.16, 13.14, 2.37, 1.58, 7.57, repro,
2007-08-08,1.45, -2.62, 3.90, 2.25, 1.51, 7.33, repro,
2007-08-09,2.04, -1.52, 5.49, 2.26, 1.53, 7.40, repro,
2007-08-10,2.35, -2.28, 2.79, 2.34, 1.59, 7.57, repro,
2007-08-11,1.79, -1.18, 3.38, 2.32, 1.52, 7.44, repro,
2007-08-12,1.05, -0.20, 0.52, 2.24, 1.52, 7.36, repro,
2007-08-13,0.63, -1.99, -0.13, 2.23, 1.51, 7.32, repro,
2007-08-14,1.79, -3.01, 2.03, 2.43, 1.64, 7.92, repro,
2007-08-15,1.66, -1.50, 5.45, 2.42, 1.63, 7.87, repro,
2007-08-16,1.00, -2.62, 5.97, 2.34, 1.58, 7.77, repro,
2007-08-17,0.91, 0.15, 5.29, 2.37, 1.59, 7.82, repro,
2007-08-18,1.68, -0.84, 14.34, 2.38, 1.61, 7.74, repro,
2007-08-19,1.33, -1.67, 15.57, 2.40, 1.63, 7.83, repro,
2007-08-20,-0.58, -1.84, 12.89, 2.33, 1.57, 7.69, repro,
2007-08-21,0.90, -2.11, 7.01, 2.31, 1.57, 7.60, repro,
2007-08-22,0.40, -1.58, 10.59, 2.38, 1.58, 7.68, repro,
2007-08-23,0.71, -2.02, 10.53, 2.27, 1.54, 7.49, repro,
2007-08-24,1.76, -1.95, 16.09, 2.37, 1.61, 7.99, repro,
2007-08-25,0.99, -1.35, 11.10, 2.38, 1.62, 7.85, repro,
2007-08-26,0.72, -0.94, 7.18, 2.41, 1.64, 7.86, repro,
2007-08-27,-0.12, -0.85, 8.47, 2.43, 1.64, 7.86, repro,
2007-08-28,1.68, -1.82, 1.88, 2.37, 1.61, 7.82, repro,
2007-08-29,1.58, -1.25, 8.21, 2.33, 1.59, 7.71, repro,
2007-08-30,0.40, -0.70, 9.75, 2.45, 1.67, 7.99, repro,
2007-08-31,0.08, -1.58, 9.49, 2.34, 1.59, 7.73, repro,
2007-09-01,0.68, -0.74, 7.60, 2.38, 1.61, 7.80, repro,
2007-09-02,0.08, -1.47, 4.71, 2.39, 1.63, 7.87, repro,
2007-09-03,1.25, -1.94, 11.92, 2.34, 1.59, 7.74, repro,
2007-09-04,-0.45, -1.51, 8.13, 2.33, 1.59, 7.70, repro,
2007-09-05,0.32, -1.57, 12.74, 2.40, 1.61, 7.95, repro,
2007-09-06,-1.26, 0.04, 11.93, 2.33, 1.59, 7.70, repro,
2007-09-07,0.10, -0.54, 10.70, 2.33, 1.59, 7.72, repro,
2007-09-08,-0.24, -1.56, 5.73, 2.40, 1.62, 7.82, repro,
2007-09-09,-0.70, -1.92, 9.02, 2.39, 1.64, 7.88, repro,
2007-09-10,0.20, -1.21, 1.43, 2.33, 1.58, 7.68, repro,
2007-09-11,-0.28, -1.91, -1.22, 2.33, 1.59, 7.71, repro,
2007-09-12,1.82, -0.26, 9.56, 2.35, 1.60, 7.78, repro,
2007-09-13,-0.40, -1.49, 1.54, 2.33, 1.59, 7.77, repro,
2007-09-14,-0.63, -0.85, 1.18, 2.34, 1.59, 7.78, repro,
2007-09-15,0.14, -0.86, 13.32, 2.39, 1.65, 7.89, repro,
2007-09-16,-1.40, -1.06, 6.25, 2.34, 1.59, 7.69, repro,
2007-09-17,0.25, -0.89, 10.53, 2.34, 1.59, 7.75, repro,
2007-09-18,-0.01, -1.09, 0.13, 2.31, 1.57, 7.56, repro,
2007-09-19,-0.66, -1.93, 1.17, 2.25, 1.52, 7.36, repro,
2007-09-20,-0.37, -0.91, 5.65, 2.27, 1.52, 7.43, repro,
2007-09-21,0.93, -1.72, 6.72, 2.28, 1.53, 7.43, repro,
2007-09-22,-1.91, -0.37, 5.99, 2.27, 1.54, 7.38, repro,
2007-09-23,-0.60, -0.67, 9.50, 2.32, 1.56, 7.54, repro,
2007-09-24,0.61, -1.02, 10.14, 2.31, 1.55, 7.70, repro,
2007-09-25,-0.02, -1.29, 2.46, 2.34, 1.56, 7.71, repro,
2007-09-26,-0.62, -1.36, 10.22, 2.28, 1.52, 7.41, repro,
2007-09-27,0.03, -1.24, 5.52, 2.35, 1.56, 7.61, repro,
2007-09-28,-0.02, -0.54, 12.74, 2.28, 1.53, 7.42, repro,
2007-09-29,-1.26, -0.27, 10.13, 2.32, 1.59, 7.56, repro,
2007-09-30,-1.58, -0.46, 10.56, 2.33, 1.55, 7.59, repro,
2007-10-01,-2.33, -0.99, 12.60, 2.33, 1.55, 7.55, repro,
2007-10-02,-1.83, -1.22, 11.36, 2.40, 1.61, 7.77, repro,
2007-10-03,-0.13, -0.81, 8.92, 2.37, 1.60, 7.74, repro,
2007-10-04,0.46, -1.06, 6.74, 2.31, 1.56, 7.57, repro,
2007-10-05,-1.01, -0.50, 14.90, 2.26, 1.53, 7.46, repro,
2007-10-06,-1.58, -1.20, 15.91, 2.28, 1.52, 7.39, repro,
2007-10-07,-0.22, -1.47, 15.71, 2.28, 1.53, 7.46, repro,
2007-10-08,-1.48, -0.90, 4.88, 2.41, 1.63, 7.86, repro,
2007-10-09,1.31, -2.00, 6.44, 2.40, 1.66, 7.82, repro,
2007-10-10,0.20, -1.42, 9.92, 2.35, 1.62, 7.82, repro,
2007-10-11,-1.21, -1.34, 15.65, 2.26, 1.53, 7.41, repro,
2007-10-12,-0.57, -0.68, 14.89, 2.28, 1.52, 7.40, repro,
2007-10-13,0.31, -0.90, 15.90, 2.29, 1.53, 7.48, repro,
2007-10-14,-0.42, -1.40, 12.35, 2.30, 1.54, 7.51, repro,
2007-10-15,0.03, -1.20, 15.54, 2.24, 1.52, 7.35, repro,
2007-10-16,0.40, -1.31, 14.58, 2.26, 1.54, 7.44, repro,
2007-10-17,-0.39, -0.83, 14.16, 2.32, 1.55, 7.47, repro,
2007-10-18,-0.70, -1.70, 16.75, 2.39, 1.59, 7.66, repro,
2007-10-19,-0.48, -1.42, 16.48, 2.31, 1.55, 7.58, repro,
2007-10-20,0.78, -1.18, 14.52, 2.35, 1.58, 7.65, repro,
2007-10-21,0.37, -0.89, 11.18, 2.23, 1.53, 7.36, repro,
2007-10-22,-0.27, -2.00, 16.44, 2.30, 1.55, 7.50, repro,
2007-10-23,0.16, -3.01, 11.54, 2.44, 1.64, 7.76, repro,
2007-10-24,0.39, -2.70, 9.16, 2.39, 1.59, 7.70, repro,
2007-10-25,-0.24, -2.14, 5.92, 2.37, 1.58, 7.69, repro,
2007-10-26,-0.04, -2.46, 9.17, 2.37, 1.59, 7.79, repro,
2007-10-27,-0.84, -1.64, 10.00, 2.29, 1.55, 7.45, repro,
2007-10-28,-0.05, -2.25, 10.05, 2.30, 1.54, 7.46, repro,
2007-10-29,-0.17, -2.43, 12.47, 2.33, 1.55, 7.55, repro,
2007-10-30,0.41, -1.30, 21.13, 2.31, 1.57, 7.56, repro,
2007-10-31,-0.86, -2.09, 20.87, 2.31, 1.55, 7.52, repro,
2007-11-01,-1.66, -2.82, 18.72, 2.25, 1.51, 7.39, repro,
2007-11-02,-0.08, -3.11, 19.16, 2.25, 1.50, 7.39, repro,
2007-11-03,-1.81, -2.32, 11.40, 2.27, 1.52, 7.41, repro,
2007-11-04,-0.39, -1.05, 10.02, 2.29, 1.52, 7.46, repro,
2007-11-05,-2.43, -1.38, 7.76, 2.28, 1.51, 7.42, repro,
2007-11-06,-2.32, -1.64, 11.76, 2.24, 1.50, 7.32, repro,
2007-11-07,-2.65, -1.61, 13.21, 2.23, 1.50, 7.30, repro,
2007-11-08,-3.94, -2.03, 17.89, 2.29, 1.53, 7.43, repro,
2007-11-09,-2.44, -1.51, 24.59, 2.34, 1.56, 7.55, repro,
2007-11-10,-2.87, -1.04, 23.86, 2.29, 1.53, 7.47, repro,
2007-11-11,-3.60, -0.79, 20.67, 2.26, 1.52, 7.39, repro,
2007-11-12,-3.25, -1.59, 22.95, 2.30, 1.57, 7.59, repro,
2007-11-13,-3.53, -1.45, 26.57, 2.28, 1.52, 7.44, repro,
2007-11-14,-5.10, -0.74, 19.61, 2.26, 1.53, 7.43, repro,
2007-11-15,-2.84, -1.30, 22.97, 2.27, 1.52, 7.43, repro,
2007-11-16,-2.97, -2.16, 19.44, 2.27, 1.52, 7.43, repro,
2007-11-17,-3.30, -1.61, 5.90, 2.26, 1.51, 7.38, repro,
2007-11-18,-3.62, -2.31, 2.37, 2.27, 1.50, 7.40, repro,
2007-11-19,-3.67, -2.18, 0.16, 2.29, 1.52, 7.48, repro,
2007-11-20,-3.03, -0.59, 0.31, 2.56, 1.74, 8.81, repro,
2007-11-21,-4.89, -0.96, 0.11, 2.38, 1.59, 7.74, repro,
2007-11-22,-1.34, -1.85, 10.78, 2.30, 1.52, 7.48, repro,
2007-11-23,-1.49, 0.09, 15.63, 2.37, 1.57, 7.71, repro,
2007-11-24,-3.04, -0.82, 14.45, 2.32, 1.54, 7.58, repro,
2007-11-25,-3.74, -0.77, 7.67, 2.31, 1.54, 7.56, repro,
2007-11-26,-4.22, -1.86, 12.73, 2.44, 1.66, 8.44, repro,
2007-11-27,-2.30, -2.41, 3.07, 2.35, 1.55, 7.61, repro,
2007-11-28,-2.43, -1.28, 1.35, 2.34, 1.55, 7.68, repro,
2007-11-29,-1.57, -1.35, -0.60, 2.42, 1.64, 8.40, repro,
2007-11-30,-2.63, -1.04, -4.43, 2.38, 1.57, 7.79, repro,
2007-12-01,-3.63, -1.74, -4.19, 2.40, 1.61, 8.09, repro,
2007-12-02,-1.33, -1.64, -3.13, 2.42, 1.65, 8.41, repro,
2007-12-03,-0.72, -1.96, 6.73, 2.62, 1.79, 9.09, repro,
2007-12-04,-1.37, -1.11, 9.19, 2.46, 1.73, 8.57, repro,
2007-12-05,-2.71, -1.72, 6.02, 2.53, 1.72, 8.42, repro,
2007-12-06,-4.02, -1.45, 5.89, 2.48, 1.69, 8.67, repro,
2007-12-07,-2.16, -0.82, -0.83, 2.42, 1.65, 8.43, repro,
2007-12-08,-1.81, -2.28, 4.02, 2.45, 1.63, 8.44, repro,
2007-12-09,-2.55, -1.19, 0.96, 2.62, 1.80, 9.32, repro,
2007-12-10,-1.53, -0.51, 6.89, 2.47, 1.63, 8.43, repro,
2007-12-11,-2.32, -0.43, 9.58, 2.44, 1.62, 8.13, repro,
2007-12-12,-2.96, -0.58, 1.03, 2.39, 1.60, 8.14, repro,
2007-12-13,-1.67, -1.36, -0.19, 2.49, 1.66, 8.47, repro,
2007-12-14,-0.84, -2.19, 0.49, 2.30, 1.54, 7.62, repro,
2007-12-15,0.50, -2.00, 9.24, 2.30, 1.54, 7.60, repro,
2007-12-16,-1.14, -0.67, -4.94, 2.38, 1.57, 7.75, repro,
2007-12-17,0.95, -0.95, 3.89, 2.43, 1.62, 7.97, repro,
2007-12-18,0.55, -2.01, -1.32, 2.34, 1.57, 7.75, repro,
2007-12-19,2.47, -1.73, 5.16, 2.50, 1.71, 8.57, repro,
2007-12-20,0.80, -2.75, 2.69, 2.34, 1.57, 7.92, repro,
2007-12-21,-0.26, -1.50, 1.49, 2.48, 1.68, 8.46, repro,
2007-12-22,-2.25, -1.54, 2.38, 2.49, 1.68, 8.35, repro,
2007-12-23,-0.96, -2.99, 1.62, 2.37, 1.59, 8.06, repro,
2007-12-24,-1.70, -3.62, 2.68, 2.38, 1.61, 8.19, repro,
2007-12-25,-0.21, -4.11, 6.59, 2.34, 1.57, 7.98, repro,
2007-12-26,0.08, -2.61, 1.93, 2.32, 1.55, 7.84, repro,
2007-12-27,-0.87, -1.50, 7.61, 2.43, 1.59, 8.06, repro,
2007-12-28,-0.57, -1.88, 4.89, 2.42, 1.61, 8.13, repro,
2007-12-29,-0.00, -2.72, 0.75, 2.39, 1.58, 7.80, repro,
2007-12-30,0.91, -2.48, -0.85, 2.35, 1.57, 7.76, repro,
2007-12-31,0.47, -2.05, -2.22, 2.29, 1.53, 7.57, repro,
2008-01-01,0.50, -1.97, -2.23, 2.29, 1.53, 7.55, repro,
2008-01-02,0.90, -2.11, 5.63, 2.31, 1.53, 7.61, repro,
2008-01-03,-0.34, -2.45, 10.92, 2.27, 1.53, 7.47, repro,
2008-01-04,0.23, -2.87, 12.90, 2.32, 1.58, 7.63, repro,
2008-01-05,0.28, -2.05, 13.69, 2.35, 1.55, 7.69, repro,
2008-01-06,-0.37, -2.52, 7.55, 2.27, 1.52, 7.44, repro,
2008-01-07,-0.20, -2.16, 6.05, 2.25, 1.51, 7.34, repro,
2008-01-08,0.29, -2.67, 1.58, 2.30, 1.54, 7.64, repro,
2008-01-09,0.42, -3.50, 4.37, 2.29, 1.55, 7.62, repro,
2008-01-10,-1.91, -3.35, 5.86, 2.24, 1.52, 7.35, repro,
2008-01-11,-0.42, -2.84, 4.72, 2.31, 1.54, 7.57, repro,
2008-01-12,0.04, -2.94, 7.30, 2.25, 1.51, 7.30, repro,
2008-01-13,-0.22, -3.67, 3.29, 2.27, 1.52, 7.36, repro,
2008-01-14,-0.47, -4.57, 1.18, 2.31, 1.55, 7.57, repro,
2008-01-15,-0.93, -3.91, -1.60, 2.24, 1.52, 7.36, repro,
2008-01-16,-1.56, -2.31, -5.15, 2.29, 1.55, 7.71, repro,
2008-01-17,1.14, -2.79, -8.26, 2.30, 1.53, 7.62, repro,
2008-01-18,1.08, -3.06, -7.42, 2.31, 1.54, 7.49, repro,
2008-01-19,-0.08, -3.72, -14.01, 2.29, 1.53, 7.54, repro,
2008-01-20,1.04, -3.77, -12.16, 2.26, 1.52, 7.38, repro,
2008-01-21,-0.46, -2.18, -9.20, 2.30, 1.57, 7.58, repro,
2008-01-22,-1.04, -1.10, 6.92, 2.27, 1.52, 7.44, repro,
2008-01-23,-0.51, -3.76, 4.39, 2.33, 1.53, 7.51, repro,
2008-01-24,1.52, -4.50, 1.81, 2.31, 1.55, 7.53, repro,
2008-01-25,-0.16, -4.10, 9.51, 2.36, 1.58, 8.09, repro,
2008-01-26,1.83, -3.97, 4.50, 2.33, 1.56, 7.70, repro,
2008-01-27,0.53, -4.96, -2.78, 2.32, 1.58, 7.77, repro,
2008-01-28,0.16, -3.56, 6.67, 2.35, 1.56, 7.71, repro,
2008-01-29,1.39, -3.86, -4.33, 2.41, 1.65, 8.14, repro,
2008-01-30,1.08, -5.28, -5.33, 2.45, 1.66, 8.47, repro,
2008-01-31,1.96, -5.96, -0.94, 2.27, 1.53, 7.49, repro,
2008-02-01,1.44, -5.88, -4.22, 2.33, 1.57, 7.92, repro,
2008-02-02,1.76, -5.72, -0.06, 2.36, 1.58, 7.92, repro,
2008-02-03,2.44, -5.63, -8.02, 2.32, 1.55, 7.55, repro,
2008-02-04,3.09, -5.19, -5.85, 2.28, 1.52, 7.39, repro,
2008-02-05,1.77, -6.51, -2.11, 2.39, 1.63, 7.84, repro,
2008-02-06,2.35, -5.92, -0.59, 2.39, 1.63, 7.87, repro,
2008-02-07,3.35, -4.18, -6.73, 2.34, 1.58, 7.70, repro,
2008-02-08,1.82, -2.47, -5.31, 2.26, 1.53, 7.46, repro,
2008-02-09,2.94, -3.14, 0.63, 2.28, 1.54, 7.52, repro,
2008-02-10,2.31, -3.14, 13.54, 2.51, 1.68, 7.96, repro,
2008-02-11,0.23, -3.28, 10.86, 2.28, 1.53, 7.49, repro,
2008-02-12,0.62, -3.00, 2.91, 2.26, 1.52, 7.43, repro,
2008-02-13,0.05, -2.45, -7.44, 2.28, 1.52, 7.46, repro,
2008-02-14,-1.29, -1.72, 5.88, 2.26, 1.52, 7.42, repro,
2008-02-15,-0.27, -3.78, 13.68, 2.33, 1.55, 7.65, repro,
2008-02-16,0.07, -3.27, 8.41, 2.25, 1.53, 7.43, repro,
2008-02-17,-0.42, -2.40, 0.06, 2.25, 1.51, 7.39, repro,
2008-02-18,-0.05, -1.49, 4.82, 2.27, 1.53, 7.50, repro,
2008-02-19,0.06, -4.21, 9.65, 2.29, 1.54, 7.55, repro,
2008-02-20,2.43, -0.89, 16.95, 2.25, 1.51, 7.33, repro,
2008-02-21,0.27, -2.70, 19.13, 2.24, 1.51, 7.33, repro,
2008-02-22,0.52, -2.86, 8.45, 2.24, 1.51, 7.37, repro,
2008-02-23,-0.20, -3.16, -0.96, 2.26, 1.51, 7.44, repro,
2008-02-24,0.70, -3.05, -5.92, 2.26, 1.52, 7.48, repro,
2008-02-25,1.03, -2.92, -3.76, 2.27, 1.52, 7.45, repro,
2008-02-26,0.01, -2.73, -1.35, 2.25, 1.52, 7.37, repro,
2008-02-27,0.33, -2.45, 2.23, 2.26, 1.52, 7.43, repro,
2008-02-28,-0.76, -2.80, -2.39, 2.47, 1.67, 7.75, repro,
2008-02-29,-0.99, -3.20, 0.50, 2.32, 1.54, 7.59, repro,
2008-03-01,0.39, -2.50, -0.94, 2.29, 1.54, 7.56, repro,
2008-03-02,0.33, -2.50, -1.24, 2.27, 1.51, 7.40, repro,
2008-03-03,-0.26, -2.55, -0.03, 2.26, 1.51, 7.42, repro,
2008-03-04,0.24, -2.45, -3.61, 2.24, 1.51, 7.38, repro,
2008-03-05,0.80, -2.46, 1.66, 2.33, 1.58, 7.71, repro,
2008-03-06,-1.73, -2.27, 5.43, 2.27, 1.53, 7.49, repro,
2008-03-07,1.58, -1.87, 9.74, 2.26, 1.51, 7.44, repro,
2008-03-08,-0.00, -3.02, 13.25, 2.47, 1.61, 7.87, repro,
2008-03-09,-1.74, -2.02, 10.18, 2.41, 1.66, 8.10, repro,
2008-03-10,-2.68, -2.82, 1.84, 2.24, 1.52, 7.41, repro,
2008-03-11,-1.74, -2.30, -0.11, 2.28, 1.54, 7.56, repro,
2008-03-12,-1.76, -1.68, -1.65, 2.27, 1.52, 7.45, repro,
2008-03-13,-1.09, -2.49, -3.38, 2.27, 1.52, 7.51, repro,
2008-03-14,-1.12, -2.63, -6.94, 2.26, 1.52, 7.44, repro,
2008-03-15,-1.79, -2.49, -8.30, 2.28, 1.58, 7.55, repro,
2008-03-16,-1.61, -1.93, 1.03, 2.25, 1.53, 7.44, repro,
2008-03-17,-0.93, -2.81, 2.34, 2.38, 1.57, 7.74, repro,
2008-03-18,-0.79, -2.51, -0.88, 2.37, 1.57, 7.71, repro,
2008-03-19,-0.95, -3.45, 2.37, 2.33, 1.55, 7.58, repro,
2008-03-20,-1.18, -2.98, -1.85, 2.31, 1.55, 7.55, repro,
2008-03-21,-1.16, -2.63, 0.40, 2.31, 1.55, 7.54, repro,
2008-03-22,-1.73, -1.84, -5.18, 2.31, 1.54, 7.50, repro,
2008-03-23,-1.54, -2.69, -1.00, 2.32, 1.54, 7.56, repro,
2008-03-24,-2.27, -2.54, 3.59, 2.33, 1.54, 7.58, repro,
2008-03-25,-2.25, -2.61, -1.31, 2.34, 1.59, 7.67, repro,
2008-03-26,-1.18, -2.68, -3.58, 2.41, 1.64, 7.91, repro,
2008-03-27,-2.17, -2.74, -5.54, 2.43, 1.66, 7.82, repro,
2008-03-28,-1.10, -3.13, -7.34, 2.34, 1.56, 7.67, repro,
2008-03-29,-1.58, -3.05, -3.87, 2.30, 1.53, 7.47, repro,
2008-03-30,-2.47, -2.48, 2.15, 2.29, 1.53, 7.44, repro,
2008-03-31,-2.30, -2.03, 2.64, 2.30, 1.53, 7.45, repro,
2008-04-01,-1.50, -2.13, -1.84, 2.27, 1.52, 7.42, repro,
2008-04-02,-0.13, -1.90, -2.31, 2.30, 1.54, 7.60, repro,
2008-04-03,-0.97, -3.37, 5.24, 2.29, 1.54, 7.48, repro,
2008-04-04,-1.84, -3.96, -0.28, 2.31, 1.54, 7.51, repro,
2008-04-05,-3.04, -3.46, 1.13, 2.33, 1.54, 7.52, repro,
2008-04-06,-1.97, -3.24, 0.15, 2.35, 1.57, 7.65, repro,
2008-04-07,-2.66, -2.40, 0.05, 2.30, 1.54, 7.48, repro,
2008-04-08,-2.16, -2.62, -1.23, 2.29, 1.53, 7.43, repro,
2008-04-09,-1.88, -2.62, 1.57, 2.29, 1.53, 7.43, repro,
2008-04-10,-2.07, -3.23, 3.98, 2.29, 1.53, 7.41, repro,
2008-04-11,-2.85, -2.72, -1.60, 2.30, 1.53, 7.49, repro,
2008-04-12,-1.22, -2.79, -0.42, 2.30, 1.54, 7.47, repro,
2008-04-13,-1.57, -2.97, 4.37, 2.30, 1.54, 7.43, repro,
2008-04-14,-2.67, -3.37, 9.56, 2.29, 1.53, 7.44, repro,
2008-04-15,-1.65, -3.32, 10.58, 2.32, 1.57, 7.51, repro,
2008-04-16,-3.81, -2.81, 4.67, 2.40, 1.61, 7.70, repro,
2008-04-17,-1.54, -2.49, -5.21, 2.29, 1.54, 7.50, repro,
2008-04-18,-1.58, -2.63, -14.67, 2.27, 1.52, 7.41, repro,
2008-04-19,-1.54, -2.62, -13.91, 2.27, 1.53, 7.42, repro,
2008-04-20,-0.29, -2.65, -9.12, 2.28, 1.53, 7.42, repro,
2008-04-21,-0.69, -2.31, -8.15, 2.27, 1.52, 7.37, repro,
2008-04-22,-0.71, -2.19, -12.02, 2.30, 1.53, 7.48, repro,
2008-04-23,-1.98, -1.81, -11.05, 2.48, 1.66, 8.06, repro,
2008-04-24,-0.53, -2.75, -5.82, 2.35, 1.58, 7.69, repro,
2008-04-25,-3.64, -3.36, -0.41, 2.28, 1.52, 7.43, repro,
2008-04-26,-3.27, -2.84, -5.88, 2.34, 1.57, 7.53, repro,
2008-04-27,-1.63, -2.14, 1.33, 2.32, 1.57, 7.52, repro,
2008-04-28,-1.19, -3.12, -2.93, 2.36, 1.58, 7.58, repro,
2008-04-29,-1.38, -3.45, -1.16, 2.40, 1.62, 7.85, repro,
2008-04-30,-1.43, -2.57, -4.68, 2.28, 1.53, 7.42, repro,
2008-05-01,-0.91, -2.88, -4.89, 2.29, 1.53, 7.47, repro,
2008-05-02,-1.46, -3.17, -5.29, 2.26, 1.51, 7.34, repro,
2008-05-03,-1.76, -2.06, -5.69, 2.27, 1.53, 7.40, repro,
2008-05-04,-1.17, -3.32, -9.72, 2.28, 1.53, 7.44, repro,
2008-05-05,-0.94, -2.69, -6.84, 2.27, 1.51, 7.40, repro,
2008-05-06,-1.26, -3.15, -12.31, 2.33, 1.58, 7.66, repro,
2008-05-07,-2.20, -3.51, -11.56, 2.27, 1.51, 7.39, repro,
2008-05-08,-2.83, -2.39, -15.29, 2.28, 1.52, 7.42, repro,
2008-05-09,-1.51, -2.94, -8.85, 2.25, 1.53, 7.43, repro,
2008-05-10,-1.76, -3.70, -6.57, 2.27, 1.53, 7.45, repro,
2008-05-11,-1.51, -3.13, -0.01, 2.26, 1.53, 7.42, repro,
2008-05-12,-0.88, -3.10, 0.47, 2.27, 1.51, 7.42, repro,
2008-05-13,0.31, -3.01, 3.68, 2.25, 1.50, 7.34, repro,
2008-05-14,-1.83, -2.84, 1.67, 2.24, 1.52, 7.33, repro,
2008-05-15,-2.13, -2.69, -2.12, 2.27, 1.53, 7.42, repro,
2008-05-16,-0.66, -3.38, -3.74, 2.26, 1.52, 7.38, repro,
2008-05-17,-0.00, -3.11, -4.24, 2.27, 1.52, 7.41, repro,
2008-05-18,-0.58, -2.26, -9.42, 2.28, 1.52, 7.47, repro,
2008-05-19,0.78, -2.79, -9.70, 2.28, 1.53, 7.44, repro,
2008-05-20,0.59, -2.13, -3.25, 2.26, 1.53, 7.41, repro,
2008-05-21,0.36, -2.14, -4.06, 2.27, 1.54, 7.44, repro,
2008-05-22,-0.27, -2.40, -11.97, 2.29, 1.54, 7.53, repro,
2008-05-23,0.57, -2.90, -10.82, 2.32, 1.57, 7.60, repro,
2008-05-24,0.05, -2.08, -15.02, 2.28, 1.53, 7.45, repro,
2008-05-25,-0.39, -2.35, -16.94, 2.27, 1.53, 7.43, repro,
2008-05-26,1.44, -3.34, -11.13, 2.27, 1.53, 7.43, repro,
2008-05-27,2.05, -3.38, -6.68, 2.26, 1.54, 7.43, repro,
2008-05-28,0.65, -2.96, -9.43, 2.32, 1.54, 7.55, repro,
2008-05-29,0.46, -2.21, -9.82, 2.29, 1.54, 7.48, repro,
2008-05-30,-0.46, -3.21, -5.48, 2.30, 1.54, 7.47, repro,
2008-05-31,0.33, -3.30, -7.48, 2.29, 1.53, 7.44, repro,
2008-06-01,1.21, -3.15, 1.83, 2.28, 1.54, 7.45, repro,
2008-06-02,1.65, -2.86, -2.75, 2.27, 1.53, 7.40, repro,
2008-06-03,2.73, -2.43, 0.91, 2.31, 1.55, 7.61, repro,
2008-06-04,0.62, -2.09, 2.61, 2.26, 1.52, 7.34, repro,
2008-06-05,0.02, -1.66, 0.63, 2.27, 1.52, 7.38, repro,
2008-06-06,-0.27, -3.24, -4.62, 2.32, 1.55, 7.55, repro,
2008-06-07,0.06, -2.55, -2.62, 2.39, 1.59, 7.69, repro,
2008-06-08,1.06, -2.77, -3.78, 2.32, 1.58, 7.54, repro,
2008-06-09,0.07, -2.10, -3.26, 2.32, 1.57, 7.54, repro,
2008-06-10,-0.13, -2.37, -5.24, 2.27, 1.53, 7.40, repro,
2008-06-11,-1.66, -2.58, -8.58, 2.29, 1.53, 7.46, repro,
2008-06-12,0.47, -2.92, -9.31, 2.31, 1.55, 7.51, repro,
2008-06-13,1.73, -3.19, -4.48, 2.26, 1.53, 7.40, repro,
2008-06-14,0.45, -2.96, -5.05, 2.30, 1.58, 7.57, repro,
2008-06-15,0.68, -4.01, -7.95, 2.33, 1.60, 7.57, repro,
2008-06-16,-0.06, -2.99, -6.80, 2.27, 1.52, 7.40, repro,
2008-06-17,-0.66, -2.91, -3.29, 2.29, 1.53, 7.45, repro,
2008-06-18,0.89, -3.20, -7.29, 2.28, 1.54, 7.42, repro,
2008-06-19,0.22, -2.44, -3.36, 2.29, 1.57, 7.64, repro,
2008-06-20,0.59, -2.43, -7.62, 2.28, 1.54, 7.44, repro,
2008-06-21,-0.17, -3.09, -1.47, 2.31, 1.59, 7.53, repro,
2008-06-22,0.26, -2.80, -4.43, 2.30, 1.53, 7.48, repro,
2008-06-23,-0.12, -3.97, -3.81, 2.28, 1.53, 7.43, repro,
2008-06-24,-0.18, -3.38, 1.55, 2.26, 1.53, 7.41, repro,
2008-06-25,1.89, -2.82, 0.98, 2.28, 1.54, 7.47, repro,
2008-06-26,-0.57, -3.16, 5.87, 2.31, 1.58, 7.73, repro,
2008-06-27,-1.38, -3.23, -0.18, 2.28, 1.53, 7.44, repro,
2008-06-28,-1.39, -2.83, 2.63, 2.28, 1.51, 7.34, repro,
2008-06-29,0.23, -3.45, 5.61, 2.27, 1.54, 7.48, repro,
2008-06-30,0.96, -3.33, -3.50, 2.26, 1.53, 7.40, repro,
2008-07-01,-0.04, -2.39, 1.00, 2.26, 1.53, 7.40, repro,
2008-07-02,-2.31, -2.26, -2.56, 2.26, 1.52, 7.36, repro,
2008-07-03,-0.79, -3.04, -2.92, 2.28, 1.52, 7.36, repro,
2008-07-04,-0.06, -2.82, 3.96, 2.28, 1.52, 7.39, repro,
2008-07-05,0.26, -3.48, -0.50, 2.38, 1.57, 7.61, repro,
2008-07-06,0.79, -4.17, 10.90, 2.27, 1.54, 7.42, repro,
2008-07-07,-0.01, -3.05, 2.94, 2.26, 1.53, 7.40, repro,
2008-07-08,-1.76, -3.79, 8.36, 2.27, 1.53, 7.41, repro,
2008-07-09,-0.60, -4.31, 3.81, 2.25, 1.52, 7.35, repro,
2008-07-10,-0.21, -2.95, 1.94, 2.31, 1.57, 7.57, repro,
2008-07-11,-0.50, -3.55, -0.35, 2.37, 1.62, 7.89, repro,
2008-07-12,0.52, -3.52, 2.71, 2.38, 1.61, 7.80, repro,
2008-07-13,-1.55, -3.70, 2.75, 2.30, 1.56, 7.56, repro,
2008-07-14,-0.29, -3.94, -0.62, 2.26, 1.52, 7.33, repro,
2008-07-15,-0.10, -2.95, -2.34, 2.26, 1.52, 7.35, repro,
2008-07-16,-0.71, -2.29, 6.17, 2.25, 1.53, 7.38, repro,
2008-07-17,-0.92, -3.02, 10.63, 2.26, 1.52, 7.37, repro,
2008-07-18,-0.83, -3.55, 12.47, 2.30, 1.55, 7.67, repro,
2008-07-19,0.26, -3.37, 8.71, 2.31, 1.55, 7.65, repro,
2008-07-20,-0.36, -2.98, 9.28, 2.27, 1.53, 7.39, repro,
2008-07-21,1.34, -3.32, 8.95, 2.28, 1.53, 7.38, repro,
2008-07-22,0.73, -3.66, 3.58, 2.27, 1.53, 7.38, repro,
2008-07-23,-0.52, -2.57, 1.95, 2.30, 1.55, 7.56, repro,
2008-07-24,-0.14, -3.50, 1.65, 2.26, 1.53, 7.37, repro,
2008-07-25,1.03, -3.26, 3.41, 2.26, 1.53, 7.38, repro,
2008-07-26,-0.61, -3.16, 3.73, 2.25, 1.52, 7.33, repro,
2008-07-27,0.89, -3.01, 8.96, 2.30, 1.55, 7.43, repro,
2008-07-28,-0.51, -3.36, 8.92, 2.33, 1.59, 7.50, repro,
2008-07-29,-1.39, -5.03, 5.41, 2.30, 1.58, 7.47, repro,
2008-07-30,0.60, -3.59, 9.45, 2.34, 1.64, 7.61, repro,
2008-07-31,0.88, -2.85, 0.19, 2.26, 1.53, 7.37, repro,
2008-08-01,0.36, -3.23, 7.50, 2.26, 1.52, 7.37, repro,
2008-08-02,0.61, -2.59, 10.89, 2.26, 1.52, 7.33, repro,
2008-08-03,-0.23, -2.39, 4.04, 2.29, 1.55, 7.67, repro,
2008-08-04,-1.01, -3.83, 1.30, 2.29, 1.57, 7.45, repro,
2008-08-05,-0.22, -2.68, -0.51, 2.27, 1.54, 7.44, repro,
2008-08-06,0.00, -2.62, 1.88, 2.29, 1.54, 7.52, repro,
2008-08-07,0.82, -2.50, 6.20, 2.50, 1.71, 7.96, repro,
2008-08-08,1.27, -2.57, 6.63, 2.36, 1.57, 7.66, repro,
2008-08-09,-1.09, -2.74, 4.52, 2.29, 1.55, 7.50, repro,
2008-08-10,-1.40, -2.58, 1.36, 2.32, 1.55, 7.57, repro,
2008-08-11,-0.29, -2.96, 2.00, 2.30, 1.55, 7.54, repro,
2008-08-12,0.14, -2.78, 2.88, 2.33, 1.58, 7.62, repro,
2008-08-13,-0.26, -2.33, 10.36, 2.32, 1.58, 7.59, repro,
2008-08-14,-0.20, -2.62, 4.26, 2.28, 1.54, 7.48, repro,
2008-08-15,-0.64, -3.06, 2.24, 2.31, 1.59, 7.59, repro,
2008-08-16,0.19, -2.75, 1.90, 2.28, 1.55, 7.55, repro,
2008-08-17,-0.92, -2.44, 3.46, 2.31, 1.57, 7.57, repro,
2008-08-18,-0.40, -1.90, 8.65, 2.38, 1.59, 7.68, repro,
2008-08-19,0.52, -3.21, 8.06, 2.27, 1.53, 7.42, repro,
2008-08-20,-0.17, -2.46, 5.30, 2.28, 1.54, 7.47, repro,